User: anonymous   Login
Location: Unspecified
(0.0000°N, 0.0000°E)
Time: 00:59:48
(UTC+00:00)
Language:

STARLINK-2354 - Orbit

View from above orbital plane
View from above orbital plane
View from above satellite
View from above satellite

Ground track
Ground track

The orbit is defined by the following mean orbital elements,

1 47894U          26145.37755567 +.00000000 +00000-0 +92902-3 0 00003
2 47894  53.1518 271.3876 0001767 112.1820 247.9369 15.32146647    06
Epoch (UTC): 25 May 2026 09:03:40
Eccentricity: 0.0001767
inclination: 53.1518°
perigee height: 468 km
apogee height: 471 km
right ascension of ascending node: 271.3876°
argument of perigee: 112.1820°
revolutions per day: 15.32146647
mean anomaly at epoch: 247.9369°

The dashed part of the orbit path shows where the satellite is in the earth's shadow,  

DLR